Vorticity
nan nan nan nan nan nan nan nan nan nan nan nan nan nan nan nan nan nan nan nan nan nan nan nan nan nan nan nan nan nan nan nan nan nan nan nan nan nan nan nan nan nan nan nan nan nan nan nan nan
nan 8 6 6 5 3 14 7 8 7 6 7 8 7 -2 7 15 7 8 8 6 3 6 5 5 5 7 8 6 7 5 4 5 6 6 8 8 6 5 5 5 5 5 4 4 4 3 2 nan
nan 11 8 8 6 6 8 10 7 6 6 6 1 7 8 12 6 6 10 4 3 7 6 6 5 5 7 8 7 6 5 5 6 6 8 12 8 5 5 4 6 5 4 4 4 3 3 3 nan
nan 11 10 1 1 5 9 12 6 4 2 7 8 10 9 12 14 12 6 3 6 6 5 6 6 6 7 8 8 6 5 6 7 6 12 13 6 4 4 5 6 5 4 4 4 4 4 4 nan
nan 4 3 7 13 7 7 9 2 2 8 8 7 8 9 11 13 11 4 7 8 5 6 5 5 6 8 7 6 6 6 6 5 7 11 9 5 4 4 6 6 5 5 5 5 5 5 5 nan
nan 5 5 -2 4 13 13 5 3 3 5 7 11 4 7 9 6 3 2 9 6 5 6 5 4 5 8 7 6 6 6 6 5 6 10 8 4 5 5 6 6 5 5 5 4 4 4 4 nan
nan 5 -1 6 15 15 9 5 3 6 9 7 3 4 9 8 5 3 6 2 6 5 6 5 3 3 5 6 6 6 5 5 5 7 9 7 5 5 5 5 5 4 5 4 4 3 2 2 nan
nan 3 7 19 2 17 8 6 8 6 7 8 8 9 14 11 6 7 3 1 6 6 5 5 6 4 2 5 5 5 5 5 5 6 8 5 2 3 3 5 5 5 5 4 4 3 2 1 nan
nan 3 11 8 12 12 1 7 8 10 2 1 10 23 20 7 4 6 3 3 3 6 5 7 5 6 5 6 2 4 4 4 5 5 4 -1 -0 2 4 5 6 5 4 4 3 2 1 1 nan
nan 5 16 3 11 1 6 8 8 -0 5 9 9 18 11 4 6 3 4 3 4 5 3 6 7 6 5 6 5 3 4 4 5 7 2 3 8 5 5 4 5 4 3 3 4 2 2 8 nan
nan 5 -4 2 10 4 14 5 3 6 17 9 8 4 4 4 5 5 5 6 5 3 6 4 8 5 7 4 6 5 6 6 8 8 8 7 6 6 4 3 3 6 4 3 6 7 5 8 nan
nan 3 -1 7 6 7 3 8 -1 8 28 8 11 7 5 4 3 6 6 6 6 4 7 5 6 3 8 6 7 7 7 7 7 8 9 5 6 7 6 7 7 8 7 9 7 6 10 6 nan
nan 5 5 4 4 5 7 4 10 10 -3 24 26 7 5 5 5 6 7 5 8 6 5 10 4 6 6 6 7 8 7 7 9 8 6 5 7 7 8 6 8 9 11 10 10 8 7 6 nan
nan 7 5 6 7 6 8 7 5 11 15 14 6 5 7 7 5 6 8 5 7 9 6 10 5 6 5 7 7 8 7 7 8 7 6 7 8 6 8 7 8 7 7 8 7 9 8 9 nan
nan 9 11 9 3 9 11 3 9 21 12 6 5 6 7 8 6 6 7 6 6 7 8 7 5 8 5 8 6 6 6 9 6 9 9 7 8 7 6 7 7 7 8 9 7 8 8 7 nan
nan 10 7 7 8 7 4 7 14 16 3 6 9 8 9 10 7 6 6 8 7 8 7 6 6 7 5 6 5 7 9 5 7 9 8 9 7 8 5 8 8 7 6 5 7 8 8 7 nan
nan 13 9 3 7 11 9 6 12 7 3 3 9 7 7 9 8 8 6 9 6 8 8 5 8 7 6 6 6 7 9 5 8 8 8 10 6 8 6 8 8 6 8 8 7 7 9 8 nan
nan 4 4 8 13 12 9 11 8 -4 5 9 11 9 7 9 8 8 7 8 7 7 7 5 7 7 6 4 5 8 7 6 8 8 10 8 6 7 6 9 8 6 8 7 8 7 6 9 nan
nan 3 8 10 6 6 16 11 -6 2 17 14 7 10 8 9 9 8 8 7 8 7 8 7 6 5 5 7 6 8 7 6 8 9 11 8 7 7 8 7 7 8 9 9 7 7 7 7 nan
nan 6 6 3 10 20 9 2 8 19 9 2 8 13 4 7 9 7 9 5 9 8 6 7 7 5 4 6 6 8 7 7 8 9 10 8 8 8 7 6 8 8 8 8 7 6 5 7 nan
nan 11 8 7 8 12 17 12 3 7 4 13 17 7 9 9 8 8 7 5 8 8 7 7 7 6 5 3 5 7 7 9 7 9 9 8 8 7 7 8 8 9 6 7 7 7 7 7 nan
nan 10 1 6 13 15 6 10 14 7 7 11 11 10 13 8 7 8 8 7 7 8 7 8 8 7 5 4 7 7 7 7 8 8 9 9 8 8 9 8 7 9 7 8 8 8 9 8 nan
nan 4 8 17 14 3 5 9 10 9 11 18 15 11 11 10 10 7 7 7 7 7 7 8 9 7 6 5 5 7 6 8 8 10 9 8 9 9 8 8 9 7 7 10 9 9 8 6 nan
nan 12 8 6 10 13 14 4 7 8 9 20 12 9 11 7 9 8 9 8 7 6 8 9 8 6 7 6 6 7 7 6 7 9 8 9 8 8 9 9 8 7 8 8 9 10 7 7 nan
nan 6 10 9 10 9 10 7 6 7 10 12 12 6 11 16 12 10 8 6 8 7 7 8 8 7 8 8 5 6 8 5 8 8 8 8 6 9 9 8 8 8 9 9 9 8 8 9 nan
nan 7 8 6 2 12 14 7 6 9 7 8 18 11 12 17 12 11 7 7 9 9 8 8 8 7 8 7 6 7 6 5 8 9 7 8 9 10 10 8 8 8 8 9 8 7 9 10 nan
nan 9 4 11 4 6 5 12 19 12 14 11 5 11 16 16 11 9 7 8 9 10 9 8 7 8 8 7 8 7 5 9 6 6 9 8 9 10 12 9 6 8 8 9 7 8 10 9 nan
nan 4 10 12 14 7 6 9 15 8 13 16 3 12 10 13 14 9 8 10 9 10 9 9 9 8 8 10 7 9 8 6 7 9 8 8 8 10 12 10 8 7 7 8 7 8 9 8 nan
nan 12 4 10 11 11 10 8 6 12 12 -0 21 16 10 12 12 10 10 10 9 10 10 9 9 8 9 9 9 8 9 7 6 7 9 9 8 10 10 12 8 7 7 7 7 8 9 8 nan
nan nan nan nan nan nan nan nan nan nan nan nan nan nan nan nan nan nan nan nan nan nan nan nan nan nan nan nan nan nan nan nan nan nan nan nan nan nan nan nan nan nan nan nan nan nan nan nan nan
CAPE
0 0 0 0 321 464 48 0 0 0 0 0 0 0 153 205 353 396 81 210 85 0 0 0 158 64 108 283 304 284 365 180 267 374 659 715 556 488 443 467 314 29 8 8 8 6 3 0 0
0 0 0 144 412 293 15 0 0 0 0 0 0 0 29 309 300 79 287 204 28 4 0 2 245 239 221 325 248 363 139 132 375 450 391 729 493 326 430 216 228 7 5 6 3 0 0 0 0
0 0 5 267 635 391 0 0 0 0 0 0 0 0 0 156 180 160 239 58 0 0 0 0 193 127 268 326 353 327 314 341 480 377 444 544 342 375 110 318 151 5 2 2 0 0 0 0 0
0 0 50 454 195 136 0 0 0 0 0 0 0 0 0 39 299 241 34 0 8 2 0 4 98 128 184 129 231 225 254 300 337 347 454 410 293 138 100 225 50 3 1 0 0 0 0 0 0
0 3 261 442 255 125 4 0 0 0 0 0 0 4 0 166 130 34 1 0 4 0 0 0 39 42 162 91 65 175 149 209 214 196 342 418 368 208 306 163 10 1 0 0 0 0 0 0 0
0 0 49 200 133 85 15 0 0 1 0 0 0 0 0 80 13 11 0 16 7 0 0 0 22 41 107 107 118 65 35 73 87 20 267 255 377 307 63 6 1 0 0 0 0 0 0 0 0
0 23 104 119 116 101 16 0 0 9 11 0 1 255 0 42 12 10 1 8 0 0 0 10 12 14 31 62 37 24 21 24 2 0 252 229 271 194 106 3 0 0 0 0 0 0 0 0 0
0 67 30 73 196 111 2 0 0 24 15 0 17 251 0 93 0 0 5 14 5 0 0 15 4 2 6 23 35 22 0 0 44 154 302 266 266 162 45 3 0 0 0 0 0 0 0 0 0
0 0 8 26 8 148 18 0 0 25 68 0 4 478 97 25 0 0 0 3 4 5 0 19 16 0 6 11 6 0 0 0 60 113 300 102 3 0 8 0 0 0 0 0 0 0 0 0 0
0 8 13 43 37 61 70 20 6 0 0 65 262 234 132 0 23 0 0 0 2 2 8 16 14 0 0 0 0 0 0 0 0 0 76 5 21 1 0 0 0 0 0 0 0 0 0 0 0
1 39 1 2 6 6 2 5 110 90 30 141 297 222 107 0 186 22 0 0 0 7 15 5 9 0 0 0 0 0 0 0 0 0 13 34 0 0 0 0 0 0 0 0 0 0 0 0 0
2 40 32 2 7 0 0 11 50 45 125 85 361 291 140 92 173 0 0 0 0 2 8 7 0 0 2 0 0 0 0 0 0 16 42 2 0 0 0 0 0 0 0 1 0 0 0 0 0
0 11 67 28 0 0 0 0 14 22 106 110 341 400 213 146 159 1 0 0 0 0 3 13 0 0 0 0 0 0 0 0 0 3 4 0 0 4 8 0 4 0 0 0 0 0 0 0 0
0 14 47 15 4 2 0 0 0 5 120 509 561 480 363 221 155 21 0 0 0 2 0 5 0 0 0 0 0 0 0 1 0 0 0 13 6 3 1 0 0 0 0 0 0 0 0 1 0
0 0 10 0 0 0 19 0 0 21 338 383 487 551 515 352 183 39 0 0 0 1 1 0 0 0 0 0 0 0 0 0 0 0 0 1 10 5 0 7 0 0 0 0 0 0 0 0 0
0 0 0 0 0 0 28 45 65 154 174 270 399 450 582 385 224 90 30 11 18 0 0 0 0 0 0 0 0 0 0 0 0 0 0 0 4 0 12 0 0 0 0 0 0 0 0 0 0
0 0 0 0 0 8 45 42 15 178 210 363 373 458 629 588 334 213 78 107 35 8 0 0 0 0 0 0 0 0 0 0 0 0 0 0 0 0 1 7 0 0 0 0 0 0 0 0 0
0 0 0 0 0 5 28 90 77 69 68 28 467 542 714 767 472 354 200 186 81 12 0 0 0 0 0 0 0 0 0 0 0 0 0 0 0 0 0 8 0 0 0 0 0 0 0 0 0
0 0 0 0 0 5 136 95 34 14 36 85 353 698 912 860 665 504 326 262 137 22 0 0 0 0 0 0 0 0 0 0 0 0 3 0 0 0 0 3 0 0 0 0 0 0 0 0 0
0 0 0 0 0 0 143 102 153 130 39 63 171 551 974 967 752 564 413 311 254 20 0 0 0 0 0 0 0 0 0 0 0 0 0 0 0 0 0 3 0 0 0 0 0 0 0 0 0
0 0 0 0 0 0 25 74 49 5 11 53 77 442 892 1022 890 666 465 440 289 52 0 0 0 0 0 0 0 0 0 0 0 0 0 0 0 0 0 0 0 0 0 0 0 0 0 0 0
0 0 0 0 0 1 0 1 40 29 15 36 89 706 906 1136 1075 765 561 564 328 142 0 0 0 0 0 0 0 0 0 0 0 0 0 0 0 0 0 0 0 0 0 0 0 0 0 0 0
0 0 0 0 0 4 0 1 0 32 50 16 87 188 824 1039 1051 881 675 628 461 278 50 0 0 0 0 0 0 0 0 0 0 0 0 0 0 0 0 0 0 0 0 2 0 0 0 0 0
0 3 0 2 2 15 0 13 0 5 37 26 149 57 191 940 1134 1097 781 713 561 450 267 0 0 0 0 0 0 0 0 0 0 0 0 0 0 0 0 0 0 0 0 0 0 0 0 0 0
31 58 43 67 18 0 0 23 0 0 0 43 63 168 5 470 1091 1111 836 764 723 648 427 177 0 0 0 0 0 0 0 0 0 0 0 0 0 0 0 0 0 0 0 0 0 0 0 0 0
40 114 79 1 38 1 66 49 0 18 0 4 150 79 0 483 1054 1108 947 727 748 848 662 435 187 0 0 0 0 0 0 0 0 0 0 0 0 0 0 0 0 0 0 0 0 0 0 0 0
6 117 0 181 170 192 77 13 31 48 12 4 56 74 101 762 1035 1067 973 739 783 940 914 797 507 297 16 0 0 0 0 0 0 0 0 0 0 0 0 0 0 0 0 0 0 0 0 0 0
76 8 130 157 50 103 14 101 28 12 0 52 153 70 0 354 910 974 837 793 848 933 972 1028 825 641 446 12 0 0 0 0 0 0 0 0 0 0 0 0 0 0 0 0 0 0 0 0 0
8 121 75 119 208 123 49 22 53 99 27 2 22 149 38 118 797 880 850 970 905 950 999 1069 930 764 653 430 28 0 0 0 0 0 0 0 0 0 0 0 0 0 0 0 0 0 0 0 0
16 48 116 131 32 150 166 1 6 67 125 32 0 113 151 495 788 932 849 1086 1013 984 945 997 905 760 639 633 371 48 16 0 0 0 0 0 0 0 0 0 0 0 0 0 0 0 0 0 0